Regional Weather Roundup
Issued by NWS

Home | Current Version | Previous Version | Text Only | Print | Product List | Glossary Off
Versions: 1 2 3 4 5 6 7 8 9 10 11 12 13 14 15 16 17 18 19 20 21 22 23 24 25 26 27 28 29 30 31 32 33 34 35 36 37 38 39 40 41 42 43 44 45 46 47 48 49 50

000
ASUS43 KLMK 240102
RWRKY
KENTUCKY REGIONAL WEATHER ROUNDUP
NATIONAL WEATHER SERVICE LOUISVILLE KY
900 PM EDT THU OCT 23 2014

NOTE "FAIR" INDICATES FEW OR NO CLOUDS BELOW 12,000 FEET
WITH NO SIGNIFICANT WEATHER AND/OR OBSTRUCTIONS TO VISIBILITY.

KYZ001>023-026-027-061>063-070>075-240200-
WESTERN AND SOUTH CENTRAL KENTUCKY

CITY           SKY/WX    TMP DP  RH WIND       PRES   REMARKS
PADUCAH        CLOUDY    52  45  77 SW3       30.13F
HENDERSON      CLOUDY   N/A N/A N/A CALM      30.13S
OWENSBORO      CLOUDY    54  46  74 CALM      30.14S
HOPKINSVILLE   CLOUDY    54  44  70 N2        30.14R
BOWLING GREEN  CLOUDY    50  44  80 CALM      30.13F
GLASGOW        MOCLDY    46  44  90 CALM      30.14S
$$

KYZ024-025-028>034-038-045-046-053-240200-
NORTH CENTRAL KENTUCKY

CITY           SKY/WX    TMP DP  RH WIND       PRES   REMARKS
LOUISVILLE/SDF CLOUDY    55  43  63 SE10      30.13F
LOUISVILLE/LOU CLOUDY    53  44  71 CALM      30.14F
FORT KNOX      CLOUDY    54  42  64 NE3       30.12F
$$

KYZ035>037-039>044-047>052-055>060-089>105-240200-
NORTHEAST KENTUCKY

CITY           SKY/WX    TMP DP  RH WIND       PRES   REMARKS
LEXINGTON      MOCLDY    51  42  71 CALM      30.15S
COVINGTON      PTCLDY    49  41  74 CALM      30.14S
FRANKFORT      MOCLDY    47  42  83 CALM      30.13F
$$

KYZ054-064>069-076>088-106>120-240200-
SOUTHEAST KENTUCKY

CITY           SKY/WX    TMP DP  RH WIND       PRES   REMARKS
JACKSON        CLEAR     53  39  59 CALM      30.14R
LONDON         PTCLDY    48  42  80 CALM      30.14R
SOMERSET       MOCLDY    46  43  87 CALM      30.15S
MIDDLESBORO    PTCLDY    48  43  83 CALM      30.14S
MONTICELLO     MOCLDY    45  42  89 CALM      30.15S
$$




USA.gov is the U.S. government's official web portal to all federal, state and local government web resources and services.